User: anonymous   Login
Location: Unspecified
(0.0000°N, 0.0000°E)
Time: 03:36:23
(UTC+00:00)
Language:

OBJECT BW - Orbit

View from above orbital plane
View from above orbital plane
View from above satellite
View from above satellite

Ground track
Ground track

The orbit data is extracted from the following two-line orbital elements,

1 42016U 17008BW  17112.91206704 +.00005164 +00000-0 +22430-3 0  9990
2 42016 097.5007 174.4654 0008099 063.3862 296.8203 15.22724178010053
Epoch (UTC): 22 April 2017 21:53:22
Eccentricity: 0.0008099
inclination: 97.5007°
perigee height: 492 km
apogee height: 503 km
right ascension of ascending node: 174.4654°
argument of perigee: 63.3862°
revolutions per day: 15.22724178
mean anomaly at epoch: 296.8203°
orbit number at epoch: 1005

The dashed part of the orbit path shows where the satellite is in the earth's shadow,  

DLR